{"data":{"norad_id":60130,"intl_designator":"2024-118T","name":"STARLINK-31838","alt_names":[],"object_type":"PAYLOAD","status":"ACTIVE","operator":null,"country":"US","launch_date":"2024-06-24","launch_site_code":"AFWTR","launch_vehicle":null,"mission":null,"orbit_class":"UNKNOWN","rcs_meters":null,"size_class":null,"mass_kg":null,"dimensions":null,"purposes":["comms"],"wikipedia_slug":null,"has_3d_model":false,"image_url":null,"decayed_at":null,"tle_current":{"epoch":"2026-05-25T00:08:37.854816Z","epoch_age_seconds":77766,"freshness":"FRESH","line1":"1 60130U 24118T   26145.00599369  .00000350  00000+0  23052-4 0  9998","line2":"2 60130  53.1603  32.0341 0001094  96.2411 263.8715 15.31700999107385","mean_motion":15.31700999,"eccentricity":0.0001094,"inclination_deg":53.1603,"raan_deg":32.0341,"arg_perigee_deg":96.2411,"mean_anomaly_deg":263.8715,"bstar":2.3052e-5,"rev_number":10738,"period_min":94.013126644177,"perigee_km":469.98775044276,"apogee_km":471.48628407774,"semimajor_km":6848.8740172602,"source":"CELESTRAK","updated_at":"2026-05-25T13:38:19.169267Z"}}}